Regional Weather Roundup
Issued by NWS

Home | Current Version | Previous Version | Graphics & Text | Print | Product List | Glossary Off
Versions: 1 2 3 4 5 6 7 8 9 10 11 12 13 14 15 16 17 18 19 20 21 22 23 24 25 26 27 28 29 30 31 32 33 34 35 36 37 38 39 40 41 42 43 44 45 46 47 48 49 50

000
ASUS43 KMKX 291900
RWRWI

WISCONSIN REGIONAL WEATHER ROUNDUP
NATIONAL WEATHER SERVICE MILWAUKEE/SULLIVAN WI
200 PM CDT SAT AUG 29 2015

NOTE: "FAIR" INDICATES FEW OR NO CLOUDS BELOW 12,000 FEET WITH NO
SIGNIFICANT WEATHER AND/OR OBSTRUCTIONS TO VISIBILITY.

WIZ001-002-006>008-014>016-023>028-292000-
NORTHWEST WISCONSIN

CITY           SKY/WX    TMP DP  RH WIND       PRES   REMARKS
SUPERIOR ARPT  CLOUDY    72  61  69 W7        30.02S
ASHLAND        CLOUDY    76  64  66 VRB5      30.03F
HAYWARD        MOSUNNY   73  60  63 S8        30.05S
SIREN          SUNNY     74  60  62 W6        30.05S
CUMBERLAND     SUNNY     70  59  68 SW5       30.07S
RICE LAKE      SUNNY     71  61  69 CALM      30.07F
CHETEK         MOSUNNY  N/A N/A N/A CALM      30.06F
LADYSMITH      SUNNY     72  60  66 SW5       30.08S
EAU CLAIRE     NOT AVBL
MENOMONIE      PTSUNNY   68  61  78 SE5       30.07S
NEW RICHMOND   SUNNY     68  60  75 SE3       30.07S
OSCEOLA        MOSUNNY   71  65  81 S6        30.09S
$$

WIZ003>005-009-010-017-018-292000-
NORTH CENTRAL WISCONSIN

CITY           SKY/WX    TMP DP  RH WIND       PRES   REMARKS
MANITOWISH WTR MOSUNNY   74  58  58 CALM      30.06S
ARBOR VITAE    SUNNY     73  60  63 CALM      30.06S
WOODRUFF       SUNNY     73  60  63 CALM      30.06S
RHINELANDER    MOSUNNY   70  58  65 SW6       30.08F
EAGLE RIVER    MOSUNNY   72  55  55 W3        30.06S
LAND O LAKES   SUNNY     75  57  53 W5        30.06F
PHILLIPS       SUNNY     71  60  67 CALM      30.06F
TOMAHAWK       MOSUNNY   68  59  72 CALM      30.08F
MEDFORD        CLOUDY    65  60  81 CALM      30.08S
MERRILL        CLOUDY    66  60  80 S3        30.09S
$$

WIZ029-030-035-036-043>047-292000-
CENTRAL WISCONSIN

CITY           SKY/WX    TMP DP  RH WIND       PRES   REMARKS
WAUSAU         CLOUDY    65  59  81 CALM      30.06S
MOSINEE        CLOUDY    63  61  94 CALM      30.09S
MARSHFIELD     CLOUDY    66  58  75 E6        30.08S
STEVENS POINT  CLOUDY    62  58  89 CALM      30.09R
WAUPACA        CLOUDY    68  63  84 N5        30.07F
WAUTOMA        CLOUDY    68  64  88 CALM      30.06F
WISC RAPIDS    NOT AVBL
CAMP DOUGLAS   NOT AVBL
$$

WIZ011>013-019>022-031-037>040-048>050-292000-
NORTHEAST WISCONSIN

CITY           SKY/WX    TMP DP  RH WIND       PRES   REMARKS
ANTIGO         CLOUDY    65  59  80 S3        30.09S
SHAWANO        CLOUDY    67  61  79 CALM      30.08S
OCONTO         CLOUDY    65  64  96 S5        30.07S
STURGEON BAY   CLOUDY    66  61  82 S10       30.09S
GREEN BAY      CLOUDY    71  62  73 CALM      30.06F
MANITOWOC      NOT AVBL
APPLETON       CLOUDY    68  59  73 CALM      30.05F
CLINTONVILLE   CLOUDY    64  61  88 E3        30.08R
OSHKOSH        CLOUDY    67  61  81 E5        30.05S
$$

WIZ032>034-041-042-053>061-292000-
SOUTHWEST WISCONSIN

CITY           SKY/WX    TMP DP  RH WIND       PRES   REMARKS
LA CROSSE      CLOUDY    71  62  73 NW3       30.04F
SPARTA         CLOUDY    68  59  72 NE5       30.07R
VIROQUA        CLOUDY    67  63  86 E7        30.06S
BOSCOBEL       CLOUDY    71  63  75 E5        30.04R
PRAIRIE DU CHI CLOUDY    69  60  73 NE5       30.03S
PLATTEVILLE    CLOUDY    70  65  84 N7        30.02S
$$

WIZ056-057-062-063-064-067-068-292000-
SOUTH CENTRAL WISCONSIN

CITY           SKY/WX    TMP DP  RH WIND       PRES   REMARKS
REEDSBURG      CLOUDY    67  62  84 NE3       30.04S
BARABOO/DELLS  CLOUDY    65  61  85 N5        30.05S
LONE ROCK      NOT AVBL
MINERAL POINT  CLOUDY    70  63  78 N8        30.04R
MADISON        CLOUDY    67  63  87 E5        30.03S
MIDDLETON      CLOUDY    68  66  93 SE5       30.04S
WATERTOWN      CLOUDY    64  64 100 CALM      30.04S FOG
MONROE         CLOUDY    68  63  83 CALM      30.03S
JANESVILLE     NOT AVBL
$$

WIZ051-052-058>065-066-070>072-292000-
SOUTHEAST WISCONSIN

CITY           SKY/WX    TMP DP  RH WIND       PRES   REMARKS
MILWAUKEE      CLOUDY    63  61  93 NE5       30.04S FOG
WAUKESHA       CLOUDY    63  61  94 CALM      30.06R FOG
MILWAUKEE/TIMM CLOUDY    63  61  94 CALM      30.06R FOG
RACINE         CLOUDY    64  61  90 E7        30.05S FOG
BURLINGTON     CLOUDY    65  63  93 E3        30.02F
KENOSHA        CLOUDY    66  64  93 E6        30.03S FOG
FOND DU LAC    CLOUDY    69  62  78 CALM      30.05F
SHEBOYGAN      CLOUDY    67  62  84 S6        30.06F
WEST BEND      CLOUDY    63  59  88 CALM      30.05F FOG
JUNEAU         CLOUDY    65  62  90 E3        30.06S
$$

LSZ147-162-292000-
LAKE SUPERIOR

STATION/POSITION TIME  TEMP    WIND        PRES    WAVE
                       AIR SEA DIR/SP/G            HT/PER
                 (UTC) (F)     (DEG/KT/KT) (MB)    (FT/S)
W MID LAKE BUOY  1750   58 54  220/ 12/ 14 1016.3F   2/ 5
DEVILS ISLAND    1800   62     220/ 14/ 16 1016.5F
PORT WING        1840   67     250/  4/  6 1016.9F
SAXON HARBOR     1800   71     300/  2/  6 1016.6F
$$

LMZ867-665-643>646-292000-
LAKE MICHIGAN

STATION/POSITION TIME  TEMP    WIND        PRES    WAVE
                       AIR SEA DIR/SP/G            HT/PER
                 (UTC) (F)     (DEG/KT/KT) (MB)    (FT/S)
CHAMBERS ISLAND  1800   63     250/  5/  9 1018.3F
S GREEN BAY BUOY 1700   62 62  310/  2/  2 1020.0F
N MID LAKE BUOY  1750   63 64  200/  8/ 10 1018.1F   1/ 4
NORTHPORT PIER   1800   63     140/  9/ 13 1018.3F
SISTER BAY       1804   69     190/ 13/ 15   N/A
ALGOMA LAKESHORE 1814             CALM       N/A
SHEBOYGAN LAKESH 1800   59     160/  5/  6 1018.4R
PORT WASHINGTON  1840   57      30/  2/  3 1018.6S
ATWATER BUOY     1800   52 48  320/  4/  4 1019.0S
MILWAUKEE LAKESH 1800   58      20/  3/  4   N/A
S MID LAKE BUOY  1750   66 68  120/ 14/ 16 1016.8F   2/ 3
KENOSHA   LAKESH 1800   60     130/  3/  4 1016.6F
$$

TC  - TEMPERATURE IN CELSIUS
VSB - VISIBILITY IN STATUTE MILES
WCI - WIND CHILL INDEX
HX  - HEAT INDEX




USA.gov is the U.S. government's official web portal to all federal, state and local government web resources and services.